Location: Peebles
(55.6412°N, 3.1714°W)
Time: 14:22:22
(UTC+01:00)

DNEPR-1 R/B - Pass Details

Date: 26 September 2021
Orbit: 588 x 1333 km, 64.6° (Epoch: 17 October)

Event Time Altitude Azimuth Distance (km) Brightness Sun altitude
Rises 21:14:41 0° 309° (NW) 2,830 8.5 -19.1°
Reaches altitude 10° 21:16:55 10° 315° (NW) 1,931 7.2 -19.4°
Maximum altitude 21:21:06 53° 33° (NNE) 760 3.9 -19.9°
Enters shadow 21:22:10 42° 79° (E) 893 4.0 -20.1°
